Tianhui-5 2-02

operational
NORAD ID: 60212 Int'l Des: 2024-126 Owner: GCDX Country: CN
LEOCIRCULARRETROGRADESSO

About Tianhui-5 2-02

Description loading...

Live Position

Loading 3D Globe...

Upcoming Passes

Altitude History

Altitude vs Time

uPlot chart will show altitude changes over time

Two-Line Element Set

1 60212U 24126B 26061.61962276 .00000637 00000-0 76089-4 0 9990
2 60212 97.8215 70.6907 0001568 89.5805 270.5591 14.87589244 90054
Epoch: Mar 2, 2026 • Age: 32 hours

Current Status

Altitude 628.7 km
Velocity 7.54 km/s
Sub-Earth Point -57.38°S, 43.26°W
Launch Date Jul 4, 2024
Age 1.6 years
Type other

Technical Details

Classification Payload
Mass 1000.00 kg
Dry Mass 1000.00 kg
Total Mass 1000.00 kg
Length 2.00 m
Diameter 2.00 m
Span 14.00 m
Shape Box + 2 Pan
Manufacturer DFHZ
Bus Type CAST-2000
Phase Status In Orbit
Owner/State GCDX/CN

Large Constellations

Loading constellations...